STARLINK-34576, 64701

Orbit data source: Space-Track

STARLINK-34576, 64701 is a payload satellite owned by SpaceX/Seattle (US) in LEO that was launched on Sat, 28 Jun 2025 UTC via an FALCON 9 launch vehicle from the Air Force Western Test Range (AFWTR). Payload-class satellites include a variety of spacecraft equipped with specific instruments for various scientific and technological missions. These include communications satellites like Starlink; space stations such as the ISS; scientific satellites like the Hubble; Earth observation satellites from companies like Planet Labs, Umbra, and HawkEye 360; GPS; miniature CubeSats for education and research; and military/defense satellites.

Not visible in the next 10 days
Identifier
64701, 2025-142F
Orbit
LEO
Last TLE update
8 hours ago
Origin
Manufacturer
SpaceX/Seattle
Mission
Operational spacecraft
Bus & Motor
STARLINK V2MO, Unknown motor
Mass
575 kg wet, ~530 kg dry
Launch date (UTC)
2025-06-28 (1 week ago)
Launch vehicle
FALCON 9
Launch site
Air Force Western Test Range (AFWTR)
Object type
Payload
Rocket body
Debris
Shape & HBR
Unknown
Radar Cross Section
RCS unknown

Expand to show TLE details & history

TLE from 8 hours ago
0 STARLINK-34576
1 64701U 25142F   25186.58335648 -.01082326  00000-0 -44440-2 0  9998
2 64701  69.9952 231.3403 0003732 277.3993  46.0254 15.88187457  2086
Epoch: 2025-07-05T14:00Z
TLE epoch observation values (Epoch: 2025-07-05T14:00:01.999Z)
Latitude
-34.28325°
Longitude
83.22489°
Altitude
318.062 km
Speed
7.717 km/s
True Right ascension
14h 28m 12s
True Declination
-34° 06' 46"
Sunlit
Object was in full shadow at epoch
Visualization orbit readout
Latitude
69.29708°
Longitude
-156.77685°
Altitude
323.339 km
Speed
7.72 km/s
Apparent Right ascension
22h 11m 19s
Apparent Declination
16° 40' 11"
Sunlit
Object is in daylight
Visualization observer readout
Local Sidereal Time
10:03:08
Azimuth
357.654° N
Elevation
-33.382°
Doppler factor
1
Orbital elements
Apogee altitude
307.726 km
Perigee altitude
302.738 km
Semi-major axis
6,683.369 km
Eccentricity
0.00037
Inclination
69.9952°
RAAN
231.3403°
Arg. of periapsis
277.3993°
True anomaly
Unknown
Mean anomaly
46.0254°
Eccentric anomaly
Unknown
Mean motion
3.97237 °/min
Orbital period
90.63 mins
BSTAR
-0.004444
Loading maneuver chart data...
Loading SW <> Apogee altitude chart data...
Loading historical data...
Loading historical data...
Loading historical data...
Loading historical data...
Loading historical data...
Loading historical data...
Loading historical data...

STARLINK-34576 Visibility

Observer location: undefined°, undefined°

STARLINK-34576 is likely not visible in the next few days
Span
Click to sort rows by Start time (UTC) header in descending order
Start Az.
Max El. time (UTC)
Max El. Az.
Max El.
End time (UTC)
End Az.
|